Location: Chervonnoye
(48.6000°N, 34.4000°E)
Time: 05:46:22
(UTC+00:00)

BEESAT 3 - Pass Details

Date: 09 December 2021
Orbit: 472 x 512 km, 64.9° (Epoch: 22 January)

Event Time Altitude Azimuth Distance (km) Brightness Sun altitude
Rises 16:39:35 0° 238° (WSW) 2,557 ? -27.5°
Reaches altitude 10° 16:41:48 10° 246° (WSW) 1,687 ? -27.8°
Enters shadow 16:44:13 31° 276° (W) 904 ? -28.2°
